Miscellaneous Local Product
Issued by NWS North Platte, NE

Home | Current Version | Previous Version | Text Only | Print | Product List | Glossary On
Versions: 1 2 3 4 5 6 7 8 9 10 11 12 13 14 15 16 17 18 19 20 21 22 23 24 25 26 27 28 29 30 31 32 33 34 35 36 37 38 39 40 41 42 43 44 45 46 47 48 49 50
000
AXUS43 KLBF 221910
MISLBF


WESTERN AND NORTH CENTRAL NEBRASKA HOURLY WEATHER ROUNDUP
NATIONAL WEATHER SERVICE NORTH PLATTE NE
200 PM CDT FRI MAY 22 2015

***STATIONS NOT REPORTING VARIABLES SUCH AS SKY/WEATHER OR
PRESSURE ARE PROVIDED BY THE NEBRASKA DEPARTMENT OF
ROADS...RAWS...AND APRS NETWORKS...AND ARE NOT UNDER
NATIONAL WEATHER SERVICE QUALITY CONTROL***

...OBSERVATIONS IN AND NEAR THE EASTERN PANHANDLE OF NEBRASKA...

CITY           SKY/WX    TMP DP  RH WIND       PRES   REMARKS
PINE RIDGE     CLOUDY    56  40  55 SE21G26   30.10S
CHADRON        CLOUDY    55  42  61 SE17      30.08F
ALLIANCE       LGT RAIN  47  44  90 SE20G29   30.09F
SIDNEY         LGT RAIN  47  45  93 SE21      30.07F FOG
WHITECLAY        N/A     53  39  59 SE17        N/A
BIG SPRINGS      N/A     50  48  92 E16         N/A
$$

...OBSERVATIONS IN NORTH CENTRAL NEBRASKA...

CITY           SKY/WX    TMP DP  RH WIND       PRES   REMARKS
VALENTINE      CLOUDY    59  40  49 S20       30.16F
THEDFORD       LGT RAIN  47  43  85 SE21G26   30.20F
AINSWORTH      CLOUDY    58  44  59 S15       30.19S
O`NEILL        CLOUDY    62  41  45 S14G21    30.22S
ORD            LGT RAIN  50  45  83 S12       30.23R
BROKEN BOW     LGT RAIN  51  45  79 SE15G23   30.21F
BROWNLEE         N/A     54  41  60 S21         N/A
VALENTINE NWR    N/A     56  41  58 S14         N/A
SPRINGVIEW       N/A     60  43  53 S10G25      N/A
HALSEY           N/A     47  43  85 S9G20       N/A
BREWSTER         N/A     49  46  90 S20         N/A
ROSE             N/A     54  47  76 E20         N/A
NEWPORT          N/A     61  42  50 S16         N/A
SARGENT          N/A     47  45  92 CALM        N/A
COMSTOCK         N/A     52  46  82 S12         N/A
EWING            N/A     62  45  53 S8          N/A
$$

...OBSERVATIONS IN SOUTHWEST NEBRASKA AND FAR NORTHEAST COLORADO...

CITY           SKY/WX    TMP DP  RH WIND       PRES   REMARKS
WRAY           LGT RAIN N/A N/A N/A SE17G23   30.05F
IMPERIAL       LGT RAIN  50  47  89 SE20G25   30.09F
OGALLALA       CLOUDY    49  47  91 SE20G25   30.11F
NORTH PLATTE   LGT RAIN  47  45  93 E17       30.17S
MCCOOK         RAIN      50  48  93 E14       30.13S FOG
LEXINGTON      LGT RAIN  49  47  93 E10       30.20F
PAXTON           N/A     48  46  94 E17         N/A
GOTHENBURG       N/A     46  43  90 E12         N/A
CALLAWAY         N/A     47  45  94 SE28        N/A
$$

...NORTH PLATTE AREA...

CITY           SKY/WX    TMP DP  RH WIND       PRES   REMARKS
AIRPORT        LGT RAIN  47  45  93 E17       30.17S
DOWNTOWN         N/A     47  45  92 E6G15       N/A
$$

...SOME WEATHER OBSERVATIONS FROM AROUND THE REGION...

CITY           SKY/WX    TMP DP  RH WIND       PRES   REMARKS
DENVER         LGT RAIN  52  47  83 E8        30.00F
LARAMIE        LGT RAIN  45  41  86 SE18      30.00S
CHEYENNE       LGT RAIN  44  41  89 SE13      30.04S
SCOTTSBLUFF    CLOUDY    51  32  48 SE18G26   30.07S
RAPID CITY     CLOUDY    59  44  57 S17       30.08F
PIERRE         PTSUNNY   71  38  29 SE18G31   30.12F
WINNER         FAIR      68  37  32 SE18G24   30.16S
SIOUX FALLS    CLOUDY    72  40  31 VRB3      30.18F
OMAHA          CLOUDY    70  39  32 SW10      30.22F
GRAND ISLAND   LGT RAIN  54  46  74 SE5       30.24S
KANSAS CITY    CLOUDY    63  49  60 S7        30.25F
WICHITA        CLOUDY    57  54  89 S13       30.19F FOG
HAYS           CLOUDY    55  45  67 SE15      30.15F
LIBERAL        CLOUDY    55  52  88 S14       30.11F
GOODLAND       LGT RAIN  50  49  96 SE16G26   30.05F FOG
$$



USA.gov is the U.S. government's official web portal to all federal, state and local government web resources and services.